Find Nimiq 2

NORAD ID: 27632 Int'l Des: 2002-062 Owner: TCAN Country: CA operational
HEOCIRCULARGSO

Live-Position

3D-Globus wird geladen...

Über Nimiq 2

Beschreibung wird geladen...

Nächste Überflüge

Passes for default location (London). Set your location on the main map for personalized predictions.

Höhenverlauf

Loading altitude history...

Zweizeiliger Elementsatz

1 27632U 02062A 26106.91799220 -.00000059 00000-0 00000-0 0 9999
2 27632 9.3060 57.5302 0006097 323.1274 45.7095 1.00268826 43578
Epoch: 16. Apr. 2026 • Age: 22 hours

Aktueller Status

Höhe 35762.4 km
Geschwindigkeit 3.08 km/s
Subsatellitenpunkt -3.62°S, 108.9°W
Startdatum 29. Dez. 2002
Alter 23.2 years
Typ other

Technische Details

Klassifizierung Payload
Masse 3600.00 kg
Trockenmasse 1500.00 kg
Gesamtmasse 3600.00 kg
Länge 4.50 m
Durchmesser 1.80 m
Spannweite 21.00 m
Form Box + 2 Pan
Hersteller LMCSS
Bus-Typ A2100AX
Phasenstatus In Orbit
Besitzer/Staat TCAN/CA

Most Searched